Theta_e
312 312 312 313 314 315 315 316 317 317 314 313 312 309 309 311 313 315 314 317 321 321 319 324 330 330 330 332 347 346 350 352 352 350 347 349 346 346 346 346 343 343 343 347 347
311 311 311 312 314 315 315 316 316 318 319 313 312 310 309 310 312 315 317 321 321 320 318 324 328 329 330 337 349 349 352 353 349 349 347 348 349 349 346 346 345 344 344 348 347
311 311 311 311 313 315 315 316 316 317 320 318 312 310 309 310 315 327 323 321 320 318 318 325 327 327 329 332 348 351 347 346 348 342 336 350 350 348 345 347 344 343 342 345 346
310 311 310 311 313 315 316 316 318 318 319 320 314 310 310 314 333 330 328 325 323 315 319 326 325 326 328 333 346 353 347 348 349 348 349 348 348 347 345 345 344 343 341 343 344
310 310 310 311 313 316 316 319 321 320 320 318 315 311 315 330 330 328 319 320 315 315 320 325 325 326 328 338 348 349 341 346 347 345 347 345 348 347 345 343 344 342 342 343 343
310 310 310 312 315 316 319 321 321 321 318 313 312 314 317 330 327 327 318 315 315 316 323 323 324 327 330 343 346 342 343 346 344 346 346 347 345 348 346 345 345 343 342 344 342
309 310 310 313 316 317 321 321 322 321 317 316 319 322 328 330 325 323 322 317 320 321 322 322 324 326 329 337 346 345 350 347 347 348 346 342 345 348 345 346 343 343 342 343 343
309 310 310 313 317 319 322 321 322 322 319 320 321 323 331 325 326 324 323 322 320 319 319 321 322 325 327 333 341 351 350 353 349 348 346 345 347 343 342 344 345 344 343 342 342
309 310 311 313 317 321 322 322 322 322 321 321 323 333 332 324 320 325 325 324 321 318 319 321 321 323 325 327 337 345 354 348 346 349 345 344 346 341 341 341 343 345 344 342 342
309 310 311 312 318 322 324 323 323 322 321 321 322 327 330 326 324 325 325 324 322 319 319 320 321 320 323 326 337 345 350 343 349 351 347 346 344 340 338 338 341 343 345 340 342
309 310 311 312 318 323 325 326 328 328 324 328 329 327 325 323 322 322 324 321 321 321 318 321 318 321 324 326 340 343 345 344 343 349 348 347 344 338 336 340 339 340 345 345 344
308 310 311 312 318 323 324 327 326 326 326 329 327 325 324 323 323 323 322 322 320 319 319 319 317 322 325 334 342 344 348 350 340 344 345 344 345 341 338 339 340 341 345 345 346
310 309 311 312 320 323 327 327 326 326 327 328 327 326 325 325 324 323 322 321 321 320 320 320 322 324 326 331 341 345 340 340 340 338 347 346 350 347 344 340 338 342 343 345 346
314 309 310 313 321 327 327 326 326 325 327 330 326 325 325 326 324 323 325 325 323 322 324 323 328 329 328 330 329 335 342 341 340 350 350 348 352 350 346 345 342 343 343 343 344
312 312 309 312 319 324 326 325 326 326 333 329 327 325 326 325 323 323 324 324 323 325 326 324 328 328 328 329 328 329 337 337 339 338 341 351 344 352 345 345 344 342 342 343 343
317 313 310 311 316 325 325 325 325 326 332 326 326 326 325 325 324 324 323 323 325 325 326 324 326 326 326 328 327 328 329 333 332 333 335 339 341 353 348 345 342 342 341 343 343
320 314 312 310 315 324 324 325 326 329 329 326 326 326 326 324 324 324 323 322 322 324 323 323 323 324 326 325 326 326 323 325 330 342 343 337 341 340 346 343 340 342 341 340 341
320 316 313 311 312 319 324 324 329 332 332 326 325 326 326 327 325 326 325 323 323 324 323 327 328 323 324 324 323 326 322 322 338 343 343 339 344 347 345 345 345 343 340 340 340
321 315 315 312 312 321 323 327 329 331 327 325 324 326 326 327 327 327 326 327 327 326 326 328 327 325 324 327 324 324 331 331 335 339 341 340 343 341 343 341 345 345 344 341 342
321 314 314 323 317 314 322 325 327 327 327 324 323 326 330 328 327 326 328 328 328 327 326 326 327 328 329 328 328 327 330 328 332 342 346 344 347 347 344 340 338 340 343 342 341
320 320 324 323 321 321 325 326 326 326 327 324 323 324 326 331 329 329 331 330 329 327 326 326 326 327 329 327 326 327 329 329 333 335 343 347 348 340 338 337 338 340 342 342 342
318 321 323 322 322 324 324 325 325 326 326 324 324 323 324 326 329 328 330 330 328 325 326 326 326 327 328 328 329 329 332 328 327 340 341 339 338 338 336 337 339 340 342 343 344
319 321 321 325 324 323 323 324 325 326 328 324 323 324 324 325 327 328 330 328 327 328 327 325 327 324 327 326 329 331 330 329 330 332 339 336 333 337 335 337 339 340 341 349 346
319 324 322 326 326 325 325 323 325 327 328 326 325 325 325 326 325 327 329 328 326 326 323 323 321 321 321 325 325 328 329 329 330 332 337 335 335 335 336 337 335 340 341 341 345
319 324 325 325 327 327 326 325 324 325 328 326 326 325 325 325 327 326 326 326 326 324 324 318 320 324 324 324 323 323 324 324 324 330 330 332 334 336 336 334 338 335 337 340 336
317 326 324 325 324 325 327 325 324 325 330 326 326 325 325 326 327 329 328 327 326 324 325 322 322 327 327 325 323 324 324 323 321 322 329 332 340 340 336 336 334 331 328 340 337
321 319 324 325 324 324 324 326 325 324 326 328 326 325 326 326 325 324 324 324 323 326 326 327 327 327 327 325 325 323 324 326 329 330 331 338 338 335 334 333 334 332 338 343 346
Wind_Speed
10 10 10 10 10 10 11 11 11 11 9 7 5 5 5 6 8 9 8 8 8 9 7 5 5 9 11 18 13 10 2 2 7 7 5 6 10 8 10 24 18 14 28 38 34
9 10 10 10 10 10 11 12 12 11 10 8 6 4 4 5 8 13 10 6 9 10 9 8 11 16 21 11 10 7 3 7 6 5 5 17 7 12 12 15 25 29 29 44 37
9 10 10 9 9 10 11 12 12 12 10 9 6 4 4 4 3 4 8 9 11 14 10 9 12 19 24 19 15 7 5 6 14 26 29 9 10 8 6 12 28 31 28 37 28
10 10 10 9 9 10 12 13 14 13 11 8 6 4 3 2 3 2 9 10 12 12 12 7 10 17 9 7 11 10 34 2 20 13 7 7 12 9 18 12 32 33 27 24 24
10 10 10 9 10 11 12 14 14 12 10 7 4 2 1 4 6 10 8 7 9 12 13 9 18 20 9 5 9 12 16 10 15 14 15 12 2 7 14 19 15 26 26 21 18
9 10 10 9 10 12 13 13 11 10 9 4 2 1 3 6 6 9 1 5 8 9 5 10 16 21 18 7 11 10 20 5 8 16 8 3 4 5 15 3 15 21 21 17 16
10 10 9 9 9 12 13 10 7 8 7 6 4 4 4 3 2 4 3 5 3 3 11 14 17 19 19 4 22 22 10 3 12 7 4 4 5 5 12 11 17 19 20 16 18
10 10 9 8 9 12 11 7 4 4 3 3 5 8 7 5 5 5 4 5 6 9 12 11 11 9 10 8 10 7 5 5 6 2 2 3 5 6 5 14 7 21 17 21 14
10 10 9 8 9 10 10 6 5 3 3 6 6 7 8 5 5 4 7 8 4 6 7 8 9 8 13 6 1 4 6 6 3 5 4 3 1 13 4 6 13 11 21 16 16
10 10 9 8 8 7 8 7 5 7 7 8 10 9 6 2 3 5 3 4 4 6 9 9 6 4 5 3 5 7 8 5 5 6 4 5 5 7 20 8 3 7 8 11 15
11 10 9 7 7 6 9 9 8 3 10 12 8 11 9 2 4 6 6 5 8 9 6 14 3 7 14 11 3 11 10 6 6 5 3 9 5 13 21 9 11 9 1 12 17
13 11 10 7 6 8 12 10 11 10 9 14 10 4 5 9 9 5 7 9 8 7 12 3 8 14 14 7 12 14 12 5 4 6 6 6 7 10 11 8 11 14 7 10 6
14 12 11 7 6 7 11 13 10 14 6 15 13 9 3 7 7 10 10 11 9 8 9 8 10 16 14 2 10 15 10 7 7 4 9 8 3 7 7 20 31 25 19 14 13
15 13 12 8 7 8 10 6 11 12 3 6 9 7 7 14 3 9 9 16 7 9 6 7 6 2 7 7 7 6 20 18 14 10 5 18 3 10 12 11 15 17 24 25 20
17 14 11 8 9 10 9 9 14 14 4 14 5 7 4 6 12 7 6 8 9 11 2 7 1 5 4 8 8 5 8 4 8 10 5 18 4 4 10 12 17 26 24 29 26
18 16 11 12 16 4 18 17 16 1 6 6 9 9 9 14 10 7 4 7 13 8 3 8 8 2 6 9 7 7 6 3 2 1 2 5 6 4 9 19 13 22 25 27 27
18 18 15 14 13 4 7 11 3 4 4 8 7 7 9 8 8 9 8 8 5 1 6 9 11 4 5 6 5 4 5 4 5 5 2 8 8 7 18 11 15 18 27 25 26
19 18 15 15 11 7 5 4 5 9 12 6 1 2 8 8 8 8 6 7 10 5 6 5 2 8 6 5 5 5 7 5 4 2 2 6 4 3 10 19 17 23 29 28 27
20 16 14 6 12 9 4 4 5 3 10 4 7 2 6 6 1 2 8 4 4 7 5 5 8 7 10 5 7 7 3 1 5 2 1 2 7 2 19 20 9 16 23 30 29
23 18 19 5 10 12 4 6 8 17 18 7 6 5 1 5 6 6 5 6 4 5 5 6 5 8 2 5 5 4 1 6 4 3 1 8 4 4 9 14 17 16 18 28 30
18 9 7 16 17 13 5 6 13 26 14 1 7 9 9 2 5 1 4 5 4 6 8 4 2 9 6 4 7 2 2 3 6 3 4 3 5 7 7 8 13 22 17 27 29
9 4 15 19 9 8 9 11 22 26 9 1 4 6 8 8 4 1 3 5 13 11 4 7 3 5 8 7 8 7 0 1 4 5 3 3 5 9 9 14 3 18 21 21 24
14 11 9 18 5 7 11 20 27 22 14 7 5 6 6 7 5 6 7 14 11 6 2 5 4 4 9 7 7 3 6 5 7 4 6 5 4 4 6 11 3 25 22 5 9
7 4 12 20 20 12 12 15 19 29 14 5 5 5 2 1 5 4 5 7 14 10 7 3 2 4 4 7 5 5 8 8 2 2 5 5 3 3 5 6 8 10 16 19 5
4 5 17 4 7 11 14 15 17 19 10 13 3 6 3 3 6 6 6 5 11 12 5 3 2 5 7 9 10 9 10 11 8 6 6 4 7 2 5 5 3 8 24 43 7
5 9 19 20 17 14 7 13 16 18 10 9 7 8 6 4 4 5 5 4 6 6 7 4 3 4 5 8 9 10 9 9 10 8 6 7 6 2 9 20 22 9 48 41 7
9 13 7 12 10 9 8 13 13 14 18 20 13 8 7 7 11 13 11 8 6 1 5 3 3 3 4 9 11 7 9 8 6 10 7 3 6 11 6 7 19 32 20 10 11
Wind_Direction
24 21 19 19 21 20 16 13 9 2 353 344 329 303 284 266 246 235 224 233 259 273 276 245 241 270 271 242 169 167 91 207 160 143 240 221 100 168 115 105 144 128 135 143 140
19 15 12 9 8 8 8 6 2 357 349 341 328 310 288 271 254 243 200 223 263 268 272 241 283 275 249 232 167 157 154 193 168 107 45 310 5 185 140 149 117 129 127 143 140
15 12 7 4 1 359 360 359 355 349 345 337 325 306 292 297 290 279 248 245 263 261 247 254 288 301 296 283 178 176 179 179 117 122 126 294 3 325 120 129 145 145 148 146 152
7 6 4 1 357 356 354 352 349 343 336 328 318 309 291 219 46 247 291 257 249 232 218 262 288 273 272 265 44 83 32 109 137 142 153 67 354 7 58 98 143 144 150 161 153
1 2 1 358 353 353 352 350 344 341 338 324 314 325 95 318 280 318 305 220 208 213 219 268 278 272 276 283 89 103 109 315 134 121 102 127 316 8 70 116 151 143 154 161 164
357 358 358 354 350 349 350 349 349 354 357 3 40 113 321 280 340 332 303 188 181 206 226 276 277 293 304 43 73 168 120 242 148 98 79 85 356 35 13 123 188 146 157 170 126
353 355 355 349 346 346 348 353 357 6 32 67 57 342 277 286 317 329 341 85 103 248 276 286 293 301 335 18 131 123 94 238 116 77 68 6 357 83 22 76 152 159 156 158 172
349 351 350 342 339 346 352 344 345 6 22 342 336 330 286 245 229 243 253 262 275 258 267 291 327 316 296 301 127 84 84 129 332 335 300 359 199 290 350 54 30 194 139 165 175
346 346 344 333 335 346 350 339 315 298 284 282 308 317 278 259 211 211 227 255 214 241 272 288 328 286 291 282 145 152 121 114 263 241 145 78 248 260 234 14 25 45 123 145 189
342 339 338 325 327 340 346 323 304 274 270 272 259 298 243 334 168 214 243 265 212 235 240 252 252 242 291 237 197 182 129 119 169 166 167 151 216 262 241 270 316 358 337 206 182
338 332 328 314 313 322 337 344 336 250 252 235 238 257 130 299 207 204 206 228 244 222 222 219 178 237 243 246 144 91 112 135 32 142 122 201 174 216 221 214 240 262 280 195 241
335 326 321 303 288 305 334 328 360 320 305 282 248 218 250 192 169 166 214 236 199 228 230 246 224 244 257 200 122 122 119 114 8 309 186 150 204 232 230 249 253 235 230 172 286
334 324 315 297 266 294 303 303 348 341 289 299 227 152 119 226 202 173 215 235 225 238 241 209 244 232 249 204 149 147 145 202 167 215 236 171 197 215 239 217 222 223 200 198 226
333 324 313 292 280 270 297 359 340 334 303 232 195 168 197 228 135 171 232 247 246 240 224 254 298 86 10 334 349 140 180 184 166 165 206 190 240 217 216 228 240 236 193 199 200
332 322 309 285 264 277 337 351 330 319 294 162 121 155 184 222 146 189 232 306 282 305 358 252 167 136 287 277 254 256 198 187 188 189 169 202 267 244 192 223 219 229 216 194 196
328 318 299 280 254 260 324 329 314 275 240 138 144 193 209 223 158 140 202 243 268 285 196 269 287 350 245 248 271 318 355 313 345 211 345 354 68 258 180 223 222 215 214 195 190
319 309 289 255 241 262 337 329 306 223 272 144 171 176 208 170 147 175 195 225 220 211 255 248 238 186 277 332 353 354 9 333 347 37 245 357 27 280 228 221 207 189 201 202 195
315 303 283 256 242 243 336 321 254 267 273 103 41 124 266 172 160 183 208 222 235 238 279 261 252 152 187 208 252 257 183 173 208 161 261 22 205 336 298 225 208 193 184 188 196
321 312 281 249 211 188 286 245 239 229 335 58 164 206 269 131 288 219 229 208 84 54 20 352 15 169 161 174 164 278 338 168 115 1 82 156 318 91 23 17 39 134 167 189 196
325 315 273 162 179 191 225 247 275 298 295 29 320 234 321 149 183 220 213 47 77 71 15 311 343 295 172 105 285 258 236 29 12 114 335 1 304 283 8 359 340 321 183 192 206
331 309 298 166 176 195 224 240 265 270 268 200 307 315 319 121 242 318 151 102 112 74 34 335 351 298 340 172 225 296 139 89 99 96 160 161 215 153 125 50 283 282 278 205 210
329 287 143 157 182 217 238 251 265 276 251 140 308 303 306 329 335 174 76 86 64 50 20 7 285 304 286 320 8 117 261 10 138 213 238 190 271 173 189 138 215 289 282 233 217
334 277 270 185 215 235 243 246 259 270 260 166 213 223 283 7 4 347 107 119 93 79 90 351 340 348 333 345 22 19 334 315 113 121 179 143 272 190 274 79 59 270 275 239 229
322 292 248 211 228 250 260 253 250 254 254 222 196 267 149 298 296 312 353 129 124 120 109 96 265 215 236 271 321 320 309 302 248 162 161 206 214 174 87 87 43 33 356 309 247
259 271 0 297 261 264 238 267 277 285 212 228 309 258 165 252 275 210 228 133 131 138 130 131 243 289 327 338 328 317 315 310 308 236 152 212 178 135 123 112 142 186 306 308 296
279 343 334 299 310 314 281 237 257 274 284 196 185 252 223 221 253 314 56 56 137 223 178 184 255 291 295 295 312 319 308 279 261 290 220 180 95 71 122 112 95 47 325 290 300
293 321 350 291 307 307 298 310 241 261 282 297 182 203 241 220 227 89 66 36 331 138 211 156 84 46 331 328 327 326 281 328 17 34 27 110 147 153 154 166 158 178 216 228 304